When you browse on this site, cookies collect data to enhance your experience and personalize the content and advertising you see.
Visit our Privacy Policy to learn more. By continuing to use the site, you agree to this use of cookies and data.

Hourly Weather San Carlos

Today, 25 September, Friday

Time Temperature Precipitation Wind Pressure Humidity
00:00 +22°C° 0 mm 0 mps 746 mmHg 94%
01:00 +22°C° 0 mm 0 mps 745 mmHg 94%
02:00 +22°C° 0.1 mm 0 mps 745 mmHg 94%
03:00 +22°C° 0.1 mm 0 mps 745 mmHg 94%
04:00 +22°C° 0.1 mm 0 mps 745 mmHg 94%
05:00 +23°C° 0 mm 0 mps 746 mmHg 93%
06:00 +24°C° 0 mm 0 mps 746 mmHg 91%
07:00 +25°C° 0 mm 0 mps 747 mmHg 90%
08:00 +26°C° 0 mm 0 mps 747 mmHg 82%
09:00 +30°C° 0 mm 1 mps 747 mmHg 75%
10:00 +32°C° 0 mm 2 mps 747 mmHg 68%
11:00 +32°C° 0 mm 2 mps 746 mmHg 66%
12:00 +34°C° 0 mm 2 mps 745 mmHg 65%
13:00 +34°C° 0 mm 2 mps 744 mmHg 63%
14:00 +32°C° 0 mm 2 mps 744 mmHg 67%
15:00 +32°C° 0 mm 1 mps 743 mmHg 71%
16:00 +31°C° 0 mm 1 mps 743 mmHg 75%
17:00 +30°C° 0.1 mm 1 mps 744 mmHg 81%
18:00 +28°C° 0.1 mm 1 mps 744 mmHg 88%
19:00 +26°C° 0.1 mm 1 mps 745 mmHg 95%
20:00 +26°C° 0 mm 1 mps 745 mmHg 95%
21:00 +26°C° 0 mm 1 mps 745 mmHg 94%
22:00 +25°C° 0 mm 1 mps 746 mmHg 94%
23:00 +25°C° 0 mm 1 mps 745 mmHg 94%

Tomorrow, 26 September, Saturday

Time Temperature Precipitation Wind Pressure Humidity
00:00 +25°C° 0 mm 1 mps 745 mmHg 94%
01:00 +25°C° 0 mm 1 mps 744 mmHg 94%
02:00 +24°C° 0 mm 1 mps 744 mmHg 94%
03:00 +24°C° 0 mm 1 mps 744 mmHg 94%
04:00 +24°C° 0 mm 1 mps 744 mmHg 93%
05:00 +25°C° 0 mm 1 mps 744 mmHg 90%
06:00 +24°C° 0 mm 0 mps 745 mmHg 88%
07:00 +25°C° 0 mm 0 mps 745 mmHg 85%
08:00 +29°C° 0 mm 1 mps 746 mmHg 77%
09:00 +31°C° 0 mm 1 mps 746 mmHg 70%
10:00 +33°C° 0 mm 1 mps 746 mmHg 62%
11:00 +33°C° 0 mm 1 mps 745 mmHg 62%
12:00 +33°C° 0 mm 1 mps 744 mmHg 61%
13:00 +34°C° 0 mm 1 mps 743 mmHg 60%
14:00 +33°C° 0.2 mm 1 mps 743 mmHg 67%
15:00 +32°C° 0.2 mm 1 mps 742 mmHg 73%
16:00 +31°C° 0.2 mm 1 mps 742 mmHg 79%
17:00 +30°C° 0.2 mm 1 mps 742 mmHg 83%
18:00 +28°C° 0.2 mm 1 mps 742 mmHg 87%
19:00 +25°C° 0.2 mm 0 mps 743 mmHg 91%
20:00 +27°C° 0.2 mm 1 mps 743 mmHg 92%
21:00 +26°C° 0.2 mm 1 mps 744 mmHg 93%
22:00 +26°C° 0.2 mm 1 mps 744 mmHg 94%
23:00 +26°C° 0.1 mm 1 mps 744 mmHg 94%

Day after tomorrow, 27 September, Sunday

Time Temperature Precipitation Wind Pressure Humidity
00:00 +25°C° 0.1 mm 1 mps 743 mmHg 95%
01:00 +25°C° 0.1 mm 1 mps 743 mmHg 95%
02:00 +25°C° 0 mm 1 mps 743 mmHg 95%
03:00 +25°C° 0 mm 1 mps 743 mmHg 95%
04:00 +25°C° 0 mm 1 mps 742 mmHg 95%
05:00 +25°C° 0 mm 1 mps 743 mmHg 93%
06:00 +26°C° 0 mm 1 mps 743 mmHg 91%
07:00 +25°C° 0 mm 0 mps 744 mmHg 89%
08:00 +27°C° 0 mm 0 mps 744 mmHg 81%
09:00 +31°C° 0 mm 1 mps 744 mmHg 72%
10:00 +33°C° 0 mm 1 mps 744 mmHg 64%
11:00 +33°C° 0.4 mm 1 mps 743 mmHg 64%
12:00 +33°C° 0.4 mm 1 mps 743 mmHg 64%
13:00 +33°C° 0.4 mm 1 mps 742 mmHg 65%
14:00 +33°C° 0.3 mm 1 mps 741 mmHg 68%
15:00 +31°C° 0.3 mm 0 mps 741 mmHg 71%
16:00 +30°C° 0.3 mm 0 mps 740 mmHg 74%
17:00 +29°C° 0 mm 0 mps 741 mmHg 78%
18:00 +27°C° 0 mm 0 mps 741 mmHg 82%
19:00 +27°C° 0 mm 1 mps 742 mmHg 85%
20:00 +27°C° 0 mm 1 mps 742 mmHg 87%
21:00 +26°C° 0 mm 1 mps 742 mmHg 88%
22:00 +26°C° 0 mm 1 mps 743 mmHg 89%
23:00 +26°C° 0 mm 1 mps 742 mmHg 90%

28 September, Monday

Time Temperature Precipitation Wind Pressure Humidity
00:00 +25°C° 0 mm 1 mps 742 mmHg 91%
01:00 +25°C° 0 mm 1 mps 742 mmHg 92%
02:00 +25°C° 0 mm 1 mps 742 mmHg 92%
03:00 +24°C° 0 mm 1 mps 741 mmHg 92%
04:00 +24°C° 0 mm 1 mps 741 mmHg 92%
05:00 +25°C° 0 mm 1 mps 742 mmHg 90%
06:00 +26°C° 0 mm 1 mps 742 mmHg 87%
07:00 +25°C° 0 mm 0 mps 743 mmHg 84%
08:00 +27°C° 0 mm 0 mps 743 mmHg 76%
09:00 +31°C° 0 mm 1 mps 743 mmHg 69%
10:00 +33°C° 0 mm 1 mps 744 mmHg 61%
11:00 +33°C° 0.1 mm 1 mps 743 mmHg 60%
12:00 +34°C° 0.1 mm 1 mps 742 mmHg 58%
13:00 +34°C° 0.1 mm 1 mps 741 mmHg 57%
14:00 +34°C° 0.2 mm 1 mps 741 mmHg 64%
15:00 +33°C° 0.2 mm 1 mps 741 mmHg 70%
16:00 +32°C° 0.2 mm 1 mps 740 mmHg 77%
17:00 +30°C° 0.5 mm 1 mps 741 mmHg 82%
18:00 +28°C° 0.5 mm 1 mps 741 mmHg 88%
19:00 +26°C° 0.5 mm 1 mps 742 mmHg 93%
20:00 +26°C° 1.4 mm 1 mps 742 mmHg 94%
21:00 +26°C° 1.4 mm 1 mps 743 mmHg 94%
22:00 +26°C° 1.4 mm 1 mps 743 mmHg 95%
23:00 +25°C° 0 mm 1 mps 743 mmHg 95%

29 September, Tuesday

Time Temperature Precipitation Wind Pressure Humidity
00:00 +25°C° 0 mm 1 mps 742 mmHg 94%
01:00 +23°C° 0 mm 0 mps 742 mmHg 94%
02:00 +23°C° 0 mm 0 mps 742 mmHg 94%
03:00 +22°C° 0 mm 0 mps 742 mmHg 93%
04:00 +22°C° 0 mm 0 mps 742 mmHg 93%
05:00 +25°C° 0.4 mm 1 mps 743 mmHg 93%
06:00 +25°C° 0.4 mm 1 mps 744 mmHg 94%
07:00 +26°C° 0.4 mm 1 mps 744 mmHg 94%
08:00 +28°C° 0 mm 1 mps 744 mmHg 86%
09:00 +29°C° 0 mm 1 mps 745 mmHg 78%
10:00 +31°C° 0 mm 2 mps 745 mmHg 70%
11:00 +31°C° 1.9 mm 1 mps 744 mmHg 76%
12:00 +30°C° 1.9 mm 1 mps 743 mmHg 81%
13:00 +30°C° 1.9 mm 1 mps 742 mmHg 87%
14:00 +29°C° 1.4 mm 1 mps 742 mmHg 88%
15:00 +29°C° 1.4 mm 1 mps 742 mmHg 88%
16:00 +27°C° 1.4 mm 0 mps 741 mmHg 89%
17:00 +26°C° 0.2 mm 0 mps 742 mmHg 90%
18:00 +25°C° 0.2 mm 0 mps 742 mmHg 92%
19:00 +24°C° 0.2 mm 0 mps 743 mmHg 93%
20:00 +23°C° 0 mm 0 mps 743 mmHg 93%
21:00 +25°C° 0 mm 1 mps 744 mmHg 94%
22:00 +25°C° 0 mm 1 mps 744 mmHg 94%
23:00 +25°C° 0 mm 1 mps 744 mmHg 94%

30 September, Wednesday

Time Temperature Precipitation Wind Pressure Humidity
00:00 +24°C° 0 mm 1 mps 743 mmHg 94%
01:00 +24°C° 0 mm 1 mps 743 mmHg 95%
02:00 +24°C° 0 mm 1 mps 743 mmHg 95%
03:00 +24°C° 0 mm 1 mps 743 mmHg 95%
04:00 +24°C° 0 mm 1 mps 743 mmHg 95%
05:00 +23°C° 0 mm 0 mps 744 mmHg 93%
06:00 +24°C° 0 mm 0 mps 744 mmHg 91%
07:00 +25°C° 0 mm 0 mps 745 mmHg 89%
08:00 +29°C° 0 mm 1 mps 745 mmHg 80%
09:00 +30°C° 0 mm 1 mps 745 mmHg 72%
10:00 +32°C° 0 mm 2 mps 745 mmHg 64%
11:00 +32°C° 0 mm 2 mps 744 mmHg 64%
12:00 +34°C° 0 mm 2 mps 744 mmHg 63%
13:00 +34°C° 0 mm 2 mps 743 mmHg 63%
14:00 +32°C° 0.1 mm 1 mps 742 mmHg 66%
15:00 +32°C° 0.1 mm 1 mps 742 mmHg 70%
16:00 +32°C° 0.1 mm 1 mps 741 mmHg 73%
17:00 +30°C° 0.5 mm 1 mps 742 mmHg 78%
18:00 +28°C° 0.5 mm 1 mps 742 mmHg 84%
19:00 +26°C° 0.5 mm 1 mps 743 mmHg 89%
20:00 +26°C° 0.5 mm 1 mps 743 mmHg 90%
21:00 +26°C° 0.5 mm 1 mps 744 mmHg 92%
22:00 +25°C° 0.5 mm 1 mps 744 mmHg 93%
23:00 +25°C° 0 mm 1 mps 744 mmHg 93%
Show more